Zurück zum Katalog

CZ-6A DEB

AktivPO
NORAD 61425·DEBRIS·🇨🇳 China

Gestartet Aug 6, 2024 von Taiyuan Satellite Launch Center

Loading…

Nächste Überflüge (nächste 24 Stunden)

TLE

AktuellSource: Space-Track

Epoche: Sep 14, 2026, 10:47 UTC

1 61425U 24140YS  26257.44951728  .00000193  00000-0  85821-4 0  9992
2 61425  89.0035 265.5177 0051502 278.0862  81.4486 14.18435784106748

Verfolge CZ-6A DEB in Echtzeit mit AllMySat

Download on the App Store